Home > Weather > Sidney > Past weeks

Flag for Canada Past Weather in Sidney, British Columbia, Canada — Yesterday and Last 2 Weeks

Now
54 °F

Overcast.


Feels Like: 54 °F
Forecast: 51 / 63 °F
Wind: No wind

Location: Victoria Int. Airportb. C.

Current Time: May 24, 2016 at 5:03:31 AM

Latest Report: May 24, 2016 at 4:00 AM


Visibility: 15 mi

Pressure: 29.93 "Hg

Humidity: 88%

Dew Point: 50 °F

Location of SidneyLocation

Past Weather in Sidney — Graph

°F

Sidney Temperature Yesterday

Maximum temperature yesterday: 59 °F (at 12:00 PM)
Minimum temperature yesterday: 54 °F (at 2:00 AM)
Average temperature yesterday: 56 °F

High & Low Weather Summary for the Past Weeks

 TemperatureHumidityPressure
High79 °F (May 13, 4:00 PM)94% (May 15, 3:00 AM)30.29 "Hg (May 15, 3:00 AM)
Low43 °F (May 9, 6:00 AM)28% (May 13, 4:00 PM)29.73 "Hg (May 21, 5:00 AM)
Average58 °F68%29.99 "Hg
* Reported May 9 3:00 AM — May 24 3:00 AM, Sidney, Weather by CustomWeather, © 2016

Note: Actual official high and low records may vary slightly from our data, if they occured in-between our weather recording intervals... More about our weather records

Advertising

Sidney Weather History for the Previous 24 Hours

Scroll right to see more
 ConditionsComfort  
Time TempWeatherWind HumidityBarometerVisibility
3:00 AM
Tue, May 24
54 °FOvercast.2 mph88%29.93 "Hg15 mi
2:00 AM54 °FOvercast.3 mph88%29.93 "Hg15 mi
1:00 AM54 °FOvercast.2 mph88%29.93 "Hg15 mi
12:00 AM54 °FOvercast.5 mph88%29.92 "Hg15 mi
11:00 PM
Mon, May 23
54 °FOvercast.No wind82%29.93 "Hg15 mi
10:00 PM54 °FOvercast.2 mph88%29.93 "Hg15 mi
9:00 PM54 °FMostly cloudy.No wind88%29.91 "Hg20 mi
8:00 PM54 °FMostly cloudy.2 mph88%29.91 "Hg20 mi
7:00 PM55 °FMostly cloudy.6 mph77%29.91 "Hg20 mi
6:00 PM57 °FPartly sunny.10 mph77%29.92 "Hg20 mi
5:00 PM57 °FPartly sunny.12 mph72%29.93 "Hg20 mi
4:00 PM59 °FPartly sunny.7 mph72%29.93 "Hg20 mi
3:00 PM59 °FOvercast.9 mph72%29.93 "Hg20 mi
2:00 PM57 °FMostly cloudy.9 mph72%29.93 "Hg20 mi
1:00 PM57 °FMostly cloudy.8 mph72%29.93 "Hg20 mi
12:00 PM59 °FMostly cloudy.7 mph72%29.92 "Hg20 mi
11:00 AM57 °FOvercast.6 mph72%29.92 "Hg20 mi
10:00 AM57 °FPartly sunny.2 mph67%29.92 "Hg20 mi
9:00 AM57 °FOvercast.5 mph67%29.92 "Hg20 mi
8:00 AM57 °FMostly cloudy.7 mph67%29.91 "Hg30 mi
7:00 AM55 °FMostly cloudy.8 mph72%29.90 "Hg30 mi
6:00 AM55 °FMostly cloudy.9 mph72%29.89 "Hg30 mi
5:00 AM54 °FOvercast.9 mph77%29.89 "Hg30 mi
Weather by CustomWeather, © 2016

See weather overviewHow to use our weather pages